Satellite-Ground Cal/Val Region Overpasses Predictions

Prediction of Satellite NPP Overpassing Cal/Val Region: PacNW

Region Location: (Latitude: 10.00, Longitude: 139.50) to (Latitude: 22.70, Longitude: 165.60).

Table of predicted overpasses for the next 14.0 days since TLE Epoch: 7/11/2020
Interval Starting Time Starting Location Ending Time Ending Location
1 07/12/2020 03:10:43 ( 10.05, 152.01) 07/12/2020 03:14:18 ( 22.67, 149.00)
2 07/12/2020 15:42:36 ( 22.69, 149.26) 07/12/2020 15:46:12 ( 10.01, 146.24)
3 07/13/2020 02:51:42 ( 10.04, 156.77) 07/13/2020 02:55:17 ( 22.66, 153.76)
4 07/13/2020 15:23:34 ( 22.70, 154.01) 07/13/2020 15:27:10 ( 10.02, 151.00)
5 07/14/2020 02:32:40 ( 10.03, 161.53) 07/14/2020 02:36:15 ( 22.65, 158.52)
6 07/14/2020 15:04:34 ( 22.65, 158.76) 07/14/2020 15:08:09 ( 10.03, 155.75)
7 07/15/2020 02:14:30 ( 13.01, 165.60) 07/15/2020 02:17:15 ( 22.69, 163.27)
8 07/15/2020 03:55:09 ( 10.02, 140.91) 07/15/2020 03:56:52 ( 16.07, 139.50)
9 07/15/2020 14:45:32 ( 22.66, 163.52) 07/15/2020 14:49:07 ( 10.04, 160.51)
10 07/16/2020 03:36:07 ( 10.01, 145.67) 07/16/2020 03:39:43 ( 22.69, 142.65)
11 07/16/2020 14:29:42 ( 11.46, 165.60) 07/16/2020 14:30:06 ( 10.05, 165.27)
12 07/16/2020 16:08:01 ( 22.67, 142.90) 07/16/2020 16:11:36 ( 10.05, 139.90)
13 07/17/2020 03:17:07 ( 10.06, 150.41) 07/17/2020 03:20:42 ( 22.68, 147.41)
14 07/17/2020 15:48:59 ( 22.68, 147.66) 07/17/2020 15:52:34 ( 10.06, 144.66)
15 07/18/2020 02:58:05 ( 10.05, 155.17) 07/18/2020 03:01:40 ( 22.67, 152.17)
16 07/18/2020 15:29:58 ( 22.69, 152.42) 07/18/2020 15:33:34 ( 10.01, 149.40)
17 07/19/2020 02:39:04 ( 10.04, 159.93) 07/19/2020 02:42:39 ( 22.66, 156.93)
18 07/19/2020 15:10:57 ( 22.70, 157.18) 07/19/2020 15:14:33 ( 10.02, 154.16)
19 07/20/2020 02:20:02 ( 10.03, 164.69) 07/20/2020 02:23:37 ( 22.65, 161.68)
20 07/20/2020 14:51:56 ( 22.65, 161.92) 07/20/2020 14:55:31 ( 10.03, 158.92)
21 07/21/2020 03:42:31 ( 10.02, 144.07) 07/21/2020 03:46:06 ( 22.64, 141.07)
22 07/21/2020 14:34:10 ( 18.26, 165.60) 07/21/2020 14:36:30 ( 10.04, 163.68)
23 07/21/2020 16:14:25 ( 22.65, 141.30) 07/21/2020 16:16:31 ( 15.26, 139.51)
24 07/22/2020 03:23:29 ( 10.01, 148.83) 07/22/2020 03:27:05 ( 22.69, 145.81)
25 07/22/2020 15:55:23 ( 22.66, 146.06) 07/22/2020 15:58:58 ( 10.04, 143.06)
26 07/23/2020 03:04:28 ( 10.00, 153.59) 07/23/2020 03:08:04 ( 22.68, 150.57)
27 07/23/2020 15:36:22 ( 22.67, 150.82) 07/23/2020 15:39:57 ( 10.05, 147.82)
28 07/24/2020 02:45:27 ( 10.05, 158.33) 07/24/2020 02:49:02 ( 22.67, 155.33)
29 07/24/2020 15:17:20 ( 22.68, 155.58) 07/24/2020 15:20:56 ( 10.00, 152.56)
30 07/25/2020 02:26:26 ( 10.05, 163.09) 07/25/2020 02:30:01 ( 22.67, 160.09)
